Location: Ferchesar
(52.6477°N, 12.4298°E)
Time: 19:46:15
(UTC+01:00)

A-11 Canister half - Pass Details

Date: 12 December 2021
Orbit: 1516 x 1684 km, 47.2° (Epoch: 22 January)

Event Time Altitude Azimuth Distance (km) Brightness Sun altitude
Exits shadow 03:17:58 14° 156° (SSE) 3,472 10.8 -43.0°
Maximum altitude 03:21:55 18° 129° (SE) 3,209 10.9 -42.4°
Drops below altitude 10° 03:27:39 10° 91° (E) 3,826 11.7 -41.6°
Sets 03:32:09 0° 74° (ENE) 4,848 12.5 -40.9°
